Whitehorse, Yukon Territory

1:01 PM PDT on April 21, 2018 (GMT -0700)
Whitehorse

Weather History for CYXY - February, 2014

Change the Weather History Date:

Wednesday, February 19, 2014

  Actual Average Record
Temperature  
Mean Temperature -1 °F -  
Max Temperature 14 °F 25 °F 39 °F (2000)
Min Temperature -16 °F 5 °F -18 °F (2003)
Degree Days  
Heating Degree Days 66    
Moisture  
Dew Point -12 °F    
Average Humidity 69    
Maximum Humidity 84    
Minimum Humidity 36    
Precipitation  
Precipitation 0.00 in 0.02 in - ()
Sea Level Pressure  
Sea Level Pressure 29.70 in    
Wind  
Wind Speed 2 mph ()    
Max Wind Speed 4 mph    
Max Gust Speed -    
Visibility 15.0 miles    
Events      
Averages and records for this station are not official NWS values.
T = Trace of Precipitation, MM = Missing Value Source: Averaged Metar Reports

Daily Weather History Graph

Daily Weather History Graph

Search for Another Location

Airport or City:

Astronomy

Feb. 19, 2014 Rise Set
Actual Time 8:28 AM PST 6:00 PM PST
Civil Twilight 7:44 AM PST 6:44 PM PST
Nautical Twilight 6:55 AM PST 7:34 PM PST
Astronomical Twilight 6:06 AM PST 8:23 PM PST
Moon No Moon Rise 9:17 AM PST (2/19)
Length of Visible Light 10h 59m
Length of Day
9h 31m
Waning Gibbous, 79% of the Moon is Illuminated
Feb 19
Waning Gibbous
Feb 22
Last Quarter
Mar 1
New
Mar 8
First Quarter
Mar 16
Full

Hourly Weather History & Observations

Time (PST) Temp. Windchill Dew Point Humidity Pressure Visibility Wind Dir Wind Speed Gust Speed Precip Events Conditions
12:00 AM -5.8 °F - -9.4 °F 84% 29.58 in 15.0 mi NW 2.3 mph - N/A   Clear
1:00 AM -5.8 °F - -13.0 °F 71% 29.59 in 15.0 mi WSW 2.3 mph - N/A   Clear
2:00 AM -7.6 °F - -13.0 °F 77% 29.60 in 15.0 mi West 2.3 mph - N/A   Clear
3:00 AM -11.2 °F -20.6 °F -16.6 °F 77% 29.62 in 15.0 mi SW 3.5 mph - N/A   Clear
4:00 AM -11 °F - -17 °F 61% 29.62 in 15 mi SW 2.3 mph - -  
4:00 AM -11.2 °F - -16.6 °F 77% 29.62 in 15.0 mi SW 2.3 mph - N/A   Clear
5:00 AM -13.0 °F -22.7 °F -18.4 °F 77% 29.64 in 15.0 mi WSW 3.5 mph - N/A   Clear
6:00 AM -13.0 °F - -18.4 °F 77% 29.66 in 15.0 mi West 2.3 mph - N/A   Clear
7:00 AM -13.0 °F - -18.4 °F 77% 29.67 in 15.0 mi Calm Calm - N/A   Clear
8:00 AM -16.6 °F - -22.0 °F 76% 29.69 in 40.0 mi SSW 2.3 mph - N/A   Clear
9:00 AM -14.8 °F - -20.2 °F 77% 29.71 in 40.0 mi South 2.3 mph - N/A   Clear
10:00 AM -13 °F - -19 °F 59% 29.73 in 37 mi North 1.2 mph - -  
10:00 AM -13.0 °F - -20.2 °F 70% 29.73 in 40.0 mi Calm Calm - N/A   Ice Crystals
11:00 AM -9.4 °F - -16.6 °F 71% 29.73 in 40.0 mi Calm Calm - N/A   Clear
12:00 PM -4.0 °F - -11.2 °F 71% 29.73 in 40.0 mi Calm Calm - N/A   Clear
1:00 PM -0.4 °F - -5.8 °F 78% 29.73 in 40.0 mi North 2.3 mph - N/A   Clear
2:00 PM 6.8 °F - -4.0 °F 61% 29.72 in 40.0 mi North 2.3 mph - N/A   Clear
3:00 PM 8.6 °F 2.0 °F -2.2 °F 62% 29.72 in 40.0 mi NNW 3.5 mph - N/A   Clear
4:00 PM 13 °F - -2 °F 36% 29.71 in 37 mi North 1.2 mph - -  
4:00 PM 12.2 °F - -2.2 °F 53% 29.71 in 40.0 mi Calm Calm - N/A   Clear
5:00 PM 14.0 °F 8.2 °F -2.2 °F 49% 29.71 in 40.0 mi North 3.5 mph - N/A   Clear
6:00 PM 5.0 °F -2.1 °F -4.0 °F 66% 29.74 in 40.0 mi SSW 3.5 mph - N/A   Clear
7:00 PM 1.4 °F -6.2 °F -7.6 °F 66% 29.75 in 15.0 mi SW 3.5 mph - N/A   Clear
8:00 PM -4.0 °F - -9.4 °F 78% 29.78 in 15.0 mi Calm Calm - N/A   Clear
9:00 PM -4.0 °F -12.4 °F -9.4 °F 78% 29.78 in 40.0 mi North 3.5 mph - N/A   Clear
10:00 PM -7 °F - -12 °F 68% 29.79 in 37 mi WSW 2.3 mph - -  
10:00 PM -5.8 °F - -13.0 °F 71% 29.79 in 40.0 mi WSW 2.3 mph - N/A   Clear
11:00 PM -7.6 °F - -13.0 °F 77% 29.80 in 40.0 mi Calm Calm - N/A   Clear